Regional Weather Roundup
Issued by NWS Cleveland, OH

Home | Current Version | Previous Version | Graphics & Text | Print | Product List | Glossary On
Versions: 1 2 3 4 5 6 7 8 9 10 11 12 13 14 15 16 17 18 19 20 21 22 23 24 25 26 27 28 29 30 31 32 33 34 35 36 37 38 39 40 41 42 43 44 45 46 47 48 49 50
000
ASUS41 KCLE 201000
RWRCLE
OHIO REGIONAL WEATHER ROUNDUP
NATIONAL WEATHER SERVICE WILMINGTON, OH
500 AM EST MON FEB 20 2017

NOTE: "FAIR" INDICATES FEW OR NO CLOUDS BELOW 12,000 FEET WITH NO
SIGNIFICANT WEATHER AND/OR OBSTRUCTIONS TO VISIBILITY.

OHZ001>008-015>018-024>027-034-035-043-044-201100-
   NORTHWEST OHIO

CITY           SKY/WX    TMP DP  RH WIND       PRES   REMARKS
DEFIANCE       FAIR      32  29  88 CALM      30.20R
FINDLAY        FAIR      38  32  79 CALM      30.17S
TOLEDO EXPRESS FAIR      36  34  92 E5        30.20R
TOLEDO EXEC    FAIR      38  35  89 NE6       30.21R
LIMA           FOG       40  40 100 S7        30.17S VSB 3/4
$$

OHZ009>014-019>023-028>033-038-089-201100-
   NORTHEAST OHIO

CITY           SKY/WX    TMP DP  RH WIND       PRES   REMARKS
CLE-HOPKINS    FAIR      37  30  75 CALM      30.23R
CLE-LAKEFRONT  FAIR      36  33  89 CALM      30.21R
CUY CO. ARPT   NOT AVBL
LORAIN-ELYRIA  FAIR      33  29  85 CALM      30.21R
ASHTABULA      FAIR      30  28  92 CALM      30.22R
AKRON-CANTON   FOG       33  31  92 NE3       30.19R VSB 1/4
WOOSTER        NOT AVBL
MANSFIELD      FAIR      38  37  97 CALM      30.19R FOG
YOUNGSTOWN     FAIR      32  29  88 NE7       30.20R WCI  26
$$

OHZ042-051>053-060>062-070>072-077>081-201100-
  SOUTHWEST OHIO

CITY           SKY/WX    TMP DP  RH WIND       PRES   REMARKS
CINC-COVINGTON FOG       39  39 100 E3        30.18S VSB 1/4
CINC-LUNKEN    FOG       39  39 100 CALM      30.22R VSB 1/4
HAMILTON       FOG       39  39 100 CALM      30.21R VSB<1/4
DAYTON         NOT AVBL
WRIGHT-PAT AFB NOT AVBL
DAYTON GENERAL FOG       34  34 100 NE6       30.18R VSB<1/4 WCI  29
WILMINGTON     FOG       33  33 100 CALM      30.19R VSB 1/4
$$

OHZ036-037-039>041-045>050-054>059-063>069-073>076-082>088-201100-
  CENTRAL AND SOUTHEAST OHIO

CITY           SKY/WX    TMP DP  RH WIND       PRES   REMARKS
COLUMBUS       FOG       40  38  93 CALM      30.19R VSB 1/8
OSU AIRPORT    FOG       34  34 100 CALM      30.19R VSB<1/4
BOLTON FIELD   NOT AVBL
RICKENBACK AFB NOT AVBL
NEWARK         FOG       35  34  96 CALM      30.20R VSB 1/4
MARION         FOG       33  32  96 CALM      30.19S VSB 1/4
LANCASTER      FOG       34  32  92 CALM      30.21R VSB 1/4
ZANESVILLE     FOG       35  34  96 CALM      30.20R VSB<1/4
NEW PHILLY     FOG       35  35 100 CALM      30.21R VSB<1/4
$$



USA.gov is the U.S. government's official web portal to all federal, state and local government web resources and services.